Weather History for Grand Forks, ND

Change the Weather History Date:

Friday, December 23, 2011

  Actual Average Record
Temperature  
Mean Temperature 20 °F 9 °F  
Max Temperature 32 °F 18 °F 38 °F (1963)
Min Temperature 8 °F 0 °F -29 °F (1951)
Degree Days  
Heating Degree Days 45 56  
Month to date heating degree days 1001 1205  
Since 1 July heating degree days 2694 3404  
Cooling Degree Days 0 0  
Month to date cooling degree days 0 0  
Year to date cooling degree days 538 379  
Moisture  
Dew Point 15 °F    
Average Humidity 75    
Maximum Humidity 92    
Minimum Humidity 58    
Precipitation  
Precipitation 0.00 in 0.02 in 0.25 in (2008)
Month to date precipitation 0.02 0.45  
Year to date precipitation 19.09 20.65  
Snow  
Snow 0.00 in 0.40 in 4.20 in (2008)
Month to date snowfall 0.2 7.8  
Since 1 July snowfall 1.4 17.0  
Snow Depth 0.00 in    
Sea Level Pressure  
Sea Level Pressure 30.02 in    
Wind  
Wind Speed 10 mph (WNW)    
Max Wind Speed 20 mph    
Max Gust Speed 24 mph    
Visibility 10 miles    
Events      
T = Trace of Precipitation, MM = Missing Value Source: NWS Daily Summary

Daily Weather History Graph

Daily Weather History Graph

Search for Another Location

Airport:

Trip Planner

Search our weather history database for the weather conditions in past years. The results will help you decide how hot, cold, wet, or windy it might be!

Date:

Astronomy

Dec. 23, 2011 Rise Set
Actual Time 8:16 AM CST 4:39 PM CST
Civil Twilight 7:39 AM CST 5:15 PM CST
Nautical Twilight 7:00 AM CST 5:55 PM CST
Astronomical Twilight 6:22 AM CST 6:33 PM CST
Moon 7:08 AM CST (12/23) 3:48 PM CST (12/23)
Length of Visible Light 9h 35m
Length of Day
8h 22m
Waning Crescent, 1% of the Moon is Illuminated
Dec 23
Waning Crescent
Dec 24
New
Jan 1
First Quarter
Jan 9
Full
Jan 16
Last Quarter

Hourly Weather History & Observations

Time (CST) Temp. Windchill Dew Point Humidity Pressure Visibility Wind Dir Wind Speed Gust Speed Precip Events Conditions
12:53 AM 30.0 °F 20.5 °F 18.0 °F 61% 29.96 in 10.0 mi SSW 11.5 mph - N/A   Overcast
1:53 AM 30.9 °F 20.7 °F 18.0 °F 59% 29.93 in 10.0 mi WSW 13.8 mph - N/A   Overcast
2:53 AM 30.9 °F 21.7 °F 18.0 °F 59% 29.93 in 10.0 mi WSW 11.5 mph - N/A   Overcast
3:53 AM 32.0 °F 23.0 °F 19.0 °F 59% 29.89 in 10.0 mi WSW 11.5 mph - N/A   Overcast
4:53 AM 32.0 °F 23.0 °F 19.9 °F 61% 29.88 in 10.0 mi West 11.5 mph - N/A   Overcast
5:53 AM 30.0 °F 20.0 °F 19.0 °F 64% 29.90 in 10.0 mi WNW 12.7 mph 23.0 mph N/A   Overcast
6:53 AM 27.0 °F 17.3 °F 17.1 °F 66% 29.92 in 10.0 mi NW 10.4 mph - N/A   Partly Cloudy
7:53 AM 24.1 °F 12.5 °F 16.0 °F 71% 29.94 in 10.0 mi NW 12.7 mph - N/A   Clear
8:53 AM 23.0 °F 11.1 °F 16.0 °F 74% 29.97 in 10.0 mi WNW 12.7 mph - N/A   Clear
9:53 AM 25.0 °F 13.6 °F 16.0 °F 69% 30.00 in 10.0 mi NW 12.7 mph - N/A   Clear
10:53 AM 26.1 °F 12.7 °F 16.0 °F 66% 30.03 in 10.0 mi NNW 18.4 mph 24.2 mph N/A   Partly Cloudy
11:38 AM 26.6 °F 13.1 °F 15.8 °F 64% 30.00 in 10.0 mi NNW 19.6 mph 23.0 mph N/A   Mostly Cloudy
11:53 AM 25.0 °F 12.6 °F 16.0 °F 69% 30.04 in 10.0 mi NNW 15.0 mph - N/A   Mostly Cloudy
12:53 PM 25.0 °F 12.6 °F 16.0 °F 69% 30.05 in 10.0 mi NNW 15.0 mph - N/A   Overcast
1:53 PM 25.0 °F 13.6 °F 16.0 °F 69% 30.06 in 10.0 mi NNW 12.7 mph - N/A   Overcast
2:53 PM 25.0 °F 14.8 °F 16.0 °F 69% 30.08 in 10.0 mi North 10.4 mph - N/A   Overcast
3:53 PM 25.0 °F 16.3 °F 16.0 °F 69% 30.10 in 10.0 mi North 8.1 mph - N/A   Overcast
4:53 PM 21.0 °F 12.4 °F 14.0 °F 74% 30.11 in 10.0 mi NNE 6.9 mph - N/A   Mostly Cloudy
5:01 PM 19.4 °F 14.3 °F 14.0 °F 80% 30.06 in 10.0 mi NE 3.5 mph - N/A   Scattered Clouds
5:53 PM 17.1 °F - 12.9 °F 84% 30.11 in 10.0 mi Calm Calm - N/A   Clear
6:53 PM 14.0 °F 8.2 °F 10.0 °F 84% 30.13 in 10.0 mi SSE 3.5 mph - N/A   Clear
7:53 PM 9.0 °F -0.9 °F 6.1 °F 88% 30.12 in 10.0 mi South 5.8 mph - N/A   Clear
8:53 PM 12.9 °F 2.6 °F 9.0 °F 84% 30.09 in 10.0 mi SE 6.9 mph - N/A   Clear
9:53 PM 10.4 °F 4.0 °F 8.6 °F 92% 30.06 in 10.0 mi South 3.5 mph - N/A   Clear
10:53 PM 10.9 °F 0.2 °F 7.0 °F 84% 30.10 in 10.0 mi SSE 6.9 mph - N/A   Clear